This is the latest recevied weather packets stored in our database for station/object SQ9CIE-4. If no packets are shown the sender has not sent any weather packets the latest 1 day(s).
| Time | Temp. | Humidity | Pressure | Rain* | Wind** | Luminosity | Snow |
|---|---|---|---|---|---|---|---|
| 1777990858 | 26.11° C | 23% | 1005.3 hPa | 0 mm | 4.92 m/s, 170° | 306 W/m² | - |
| 1777990558 | 25° C | 24% | 1005.5 hPa | 0 mm | 7.15 m/s, 178° | 470 W/m² | - |
| 1777990258 | 26.11° C | 23% | 1005.6 hPa | 0 mm | 5.81 m/s, 146° | 290 W/m² | - |
| 1777989958 | 26.11° C | 22% | 1005.6 hPa | 0 mm | 5.81 m/s, 212° | 238 W/m² | - |
| 1777989658 | 26.11° C | 23% | 1005.8 hPa | 0 mm | 6.71 m/s, 207° | 480 W/m² | - |
| 1777989358 | 26.11° C | 23% | 1005.6 hPa | 0 mm | 7.15 m/s, 188° | 429 W/m² | - |
| 1777989058 | 26.11° C | 23% | 1005.6 hPa | 0 mm | 5.81 m/s, 193° | 441 W/m² | - |
| 1777988758 | 26.11° C | 23% | 1005.6 hPa | 0 mm | 7.6 m/s, 155° | 557 W/m² | - |
| 1777988458 | 26.11° C | 24% | 1005.8 hPa | 0 mm | 4.02 m/s, 172° | 555 W/m² | - |
| 1777988158 | 26.11° C | 23% | 1005.9 hPa | 0 mm | 8.49 m/s, 207° | 474 W/m² | - |
| 1777987858 | 26.11° C | 24% | 1005.8 hPa | 0 mm | 9.39 m/s, 195° | 495 W/m² | - |
| 1777987558 | 26.11° C | 24% | 1005.9 hPa | 0 mm | 8.94 m/s, 165° | 428 W/m² | - |
| 1777987258 | 26.11° C | 23% | 1005.8 hPa | 0 mm | 6.26 m/s, 251° | 643 W/m² | - |
| 1777986958 | 26.11° C | 24% | 1005.7 hPa | 0 mm | 5.81 m/s, 187° | 552 W/m² | - |
| 1777986658 | 26.11° C | 24% | 1005.9 hPa | 0 mm | 6.26 m/s, 249° | 338 W/m² | - |
| 1777986358 | 25° C | 24% | 1006.1 hPa | 0 mm | 11.62 m/s, 222° | 326 W/m² | - |
| 1777986058 | 26.11° C | 24% | 1005.9 hPa | 0 mm | 6.26 m/s, 193° | 412 W/m² | - |
| 1777985758 | 26.11° C | 24% | 1006 hPa | 0 mm | 7.15 m/s, 197° | 451 W/m² | - |
| 1777985458 | 26.11° C | 24% | 1005.9 hPa | 0 mm | 8.49 m/s, 186° | 458 W/m² | - |
| 1777985158 | 26.11° C | 23% | 1006.1 hPa | 0 mm | 8.49 m/s, 197° | 648 W/m² | - |
| 1777984858 | 25° C | 24% | 1006.3 hPa | 0 mm | 4.02 m/s, 212° | 383 W/m² | - |
| 1777984558 | 25° C | 24% | 1006.4 hPa | 0 mm | 5.36 m/s, 180° | 282 W/m² | - |
| 1777984258 | 25° C | 23% | 1006.3 hPa | 0 mm | 6.71 m/s, 229° | 301 W/m² | - |
| 1777983958 | 25° C | 24% | 1006.3 hPa | 0 mm | 4.02 m/s, 188° | 304 W/m² | - |
| 1777983658 | 25° C | 23% | 1006.4 hPa | 0 mm | 5.81 m/s, 193° | 295 W/m² | - |
* Rain latest hour (hover to see other rain measurements)
** Current wind speed in m/s (hover to see current wind gust speed)